TimeCEST,TemperatureF,Dew PointF,Humidity,Sea Level PressureIn,VisibilityMPH,Wind Direction,Wind SpeedMPH,Gust SpeedMPH,PrecipitationIn,Events,Conditions,WindDirDegrees,DateUTC
12:55 AM,48.2,46.4,93,30.04,0.0,SW,38.0,-,N/A,Fog,Fog,230,2013-08-26 22:55:00
1:55 AM,46.4,44.6,93,30.04,0.0,SW,33.4,-,N/A,Fog,Fog,230,2013-08-26 23:55:00
2:00 AM,47,44,84,,0,SW,33.4,,,Fog,Heavy Fog,230,2013-08-27 00:00:00
2:55 AM,48.2,41.0,76,30.09,-9999.0,SW,33.4,-,N/A,,Clear,230,2013-08-27 00:55:00
3:55 AM,48.2,41.0,76,30.04,-9999.0,SW,17.3,-,N/A,,Clear,230,2013-08-27 01:55:00
4:55 AM,48.2,41.0,76,30.04,-9999.0,SW,16.1,-,N/A,,Clear,220,2013-08-27 02:55:00
5:55 AM,46.4,41.0,81,30.04,-9999.0,SW,17.3,-,N/A,,Clear,230,2013-08-27 03:55:00
6:55 AM,46.4,41.0,81,30.04,6.2,WSW,17.3,-,N/A,,Scattered Clouds,240,2013-08-27 04:55:00
7:55 AM,48.2,41.0,76,30.04,6.2,SW,17.3,-,N/A,,Scattered Clouds,230,2013-08-27 05:55:00
8:00 AM,47,41,73,,31,SW,17.3,,,,Partly Cloudy,230,2013-08-27 06:00:00
8:55 AM,48.2,42.8,82,30.04,-9999.0,SW,19.6,-,N/A,,Clear,230,2013-08-27 06:55:00
9:55 AM,50.0,41.0,71,30.06,-9999.0,SW,17.3,-,N/A,,Clear,230,2013-08-27 07:55:00
10:55 AM,50.0,42.8,76,30.06,6.2,SW,10.4,-,N/A,,Partly Cloudy,230,2013-08-27 08:55:00
11:55 AM,51.8,42.8,71,30.06,6.2,SW,11.5,-,N/A,,Scattered Clouds,220,2013-08-27 09:55:00
12:55 PM,53.6,42.8,67,30.06,6.2,SW,11.5,-,N/A,,Mostly Cloudy,220,2013-08-27 10:55:00
1:55 PM,53.6,42.8,67,30.06,6.2,SW,8.1,-,N/A,,Mostly Cloudy,230,2013-08-27 11:55:00
2:55 PM,55.4,44.6,67,30.06,6.2,Calm,Calm,-,N/A,,Mostly Cloudy,360,2013-08-27 12:55:00
3:55 PM,55.4,44.6,67,30.06,6.2,SW,10.4,-,N/A,,Mostly Cloudy,230,2013-08-27 13:55:00
4:00 PM,56,45,57,,19,SW,20.1,,,,Mostly Cloudy,230,2013-08-27 14:00:00
4:55 PM,55.4,44.6,67,30.06,6.2,SW,9.2,-,N/A,,Mostly Cloudy,230,2013-08-27 14:55:00
5:00 PM,55,44,56,,19,SW,17.9,,,,Mostly Cloudy,230,2013-08-27 15:00:00
5:55 PM,53.6,44.6,72,30.04,6.2,SW,10.4,-,N/A,,Mostly Cloudy,230,2013-08-27 15:55:00
6:00 PM,54,44,60,,19,SW,20.1,,,,Mostly Cloudy,230,2013-08-27 16:00:00
6:55 PM,51.8,41.0,67,30.04,6.2,SW,8.1,-,N/A,,Mostly Cloudy,230,2013-08-27 16:55:00
7:00 PM,52,41,57,,19,SW,8.1,,,,Mostly Cloudy,230,2013-08-27 17:00:00
7:55 PM,50.0,41.0,71,30.04,6.2,SW,10.4,-,N/A,,Scattered Clouds,230,2013-08-27 17:55:00
8:00 PM,50,41,63,,19,SW,10.4,,,,Partly Cloudy,230,2013-08-27 18:00:00
8:55 PM,50.0,42.8,76,30.04,-9999.0,WSW,10.4,-,N/A,,Clear,240,2013-08-27 18:55:00
9:00 PM,50,42,66,,19,WSW,10.4,,,,Partly Cloudy,240,2013-08-27 19:00:00
9:55 PM,48.2,39.2,71,30.04,-9999.0,WSW,17.3,-,N/A,,Clear,240,2013-08-27 19:55:00
10:00 PM,48,40,64,,19,WSW,17.3,,,,,240,2013-08-27 20:00:00
10:55 PM,48.2,41.0,76,30.04,-9999.0,WSW,18.4,-,N/A,,Clear,240,2013-08-27 20:55:00
11:00 PM,48,40,66,,19,WSW,35.8,,,,,240,2013-08-27 21:00:00
11:55 PM,48.2,41.0,76,30.04,-9999.0,WSW,11.5,-,N/A,,Clear,240,2013-08-27 21:55:00